Погода в Октябрьском

Россия / Липецкая область     52°18′14″N   39°43′13″E
темп.,
°C
ветер,
м/с
пор.,
м/с
влажн.,
%
обл.,
%
осадки,
мм/ч
давл.,
гПа
погр.,
м
24 июля, сб
сб2400:00+17зсз346211 0.0 101059
03:00+16ссз356984 0.0 1011100
06:00+17сз236910 0.0 1011120
09:00+21сз225060 0.0 1011892
12:00+23ссз344598 0.0 10121925
15:00+24ссз5541100 0.0 10121915
18:00+21ссв454940 0.0 1014750
21:00+18с3559100 0.0 1016124
25 июля, вс
вс2500:00+18ссв3755100 0.0 1017233
03:00+17ссв2456100 0.0 101890
06:00+16с236344 0.0 102098
09:00+20ссв33485 0.0 1021771
12:00+24св233341 0.0 10212448
15:00+25св333093 0.0 10202429
18:00+23в333775 0.0 10211052
21:00+17в376155 0.0 1022133
26 июля, пн
пн2600:00+17вюв2356100 0.0 102378
03:00+17вюв2355100 0.0 102458
06:00+17всв115923 0.0 102520
09:00+22всв33424 0.0 1025820
12:00+25в223361 0.0 10242460
15:00+27ссз112940 0.0 10232617
18:00+26сз223154 0.0 10222240
21:00+21в354249 0.0 1023108
27 июля, вт
вт2700:00+17ююв22527 0.0 102411
03:00+15ссв01560 0.0 102410
06:00+17ссв11552 0.0 102411
09:00+23ссв23365 0.0 1024685
12:00+27св33295 0.0 10232600
15:00+29св342627 0.0 10212897
18:00+27в3330100 0.0 10211208
21:00+23юв113984 0.0 102112
28 июля, ср
ср2800:00+19ю114770 0.0 102211
03:00+18юз115210 0.0 102112
06:00+19юз11555 0.0 102113
09:00+26ююз23365 0.0 1020669
12:00+29юз322757 0.0 10183015
15:00+30ююз332417 0.0 10173159
18:00+29ююз442689 0.0 10152678
21:00+22ююз494282 0.0 1015157